Location: Newark
(39.5667°N, 8.9833°E)
Time: 03:45:30
(UTC+00:00)

Explorer 11/Cluster Stage 4 - All Passes

Search period start: 20 October 2019 00:00
Search period end: 30 October 2019 00:00
Orbit: 467 x 1259 km, 28.8° (Epoch: 18 October)

Date Brightness Start Highest point End Pass type
(mag) Time Alt. Az. Time Alt. Az. Time Alt. Az.
20 Oct - 08:43:41 10° S 08:45:12 12° SSE 08:46:45 10° SE daylight
20 Oct - 10:30:01 10° SW 10:32:45 18° S 10:35:48 10° SE daylight
20 Oct - 12:17:58 10° SW 12:20:31 15° S 12:23:21 10° SSE daylight
21 Oct - 08:32:52 10° SSW 08:34:35 13° SSE 08:36:20 10° SE daylight
21 Oct - 10:19:36 10° SW 10:22:09 17° S 10:24:56 10° SE daylight
21 Oct - 12:08:00 10° SW 12:09:53 13° SSW 12:11:54 10° SSE daylight
22 Oct - 08:22:05 10° SSW 08:23:58 14° S 08:25:53 10° SE daylight
22 Oct - 10:09:12 10° SW 10:11:33 16° S 10:14:04 10° SE daylight
22 Oct - 11:58:44 10° SSW 11:59:15 10° SSW 11:59:46 10° S daylight
23 Oct - 08:11:20 10° SSW 08:13:22 14° S 08:15:25 10° SE daylight
23 Oct - 09:58:51 10° SW 10:00:57 15° S 10:03:10 10° SSE daylight
24 Oct - 08:00:36 10° SSW 08:02:47 15° S 08:04:56 10° SE daylight
24 Oct - 09:48:32 10° SW 09:50:22 13° S 09:52:15 10° SSE daylight
25 Oct - 06:03:23 10° S 06:04:34 11° SSE 06:05:43 10° SSE daylight
25 Oct - 07:49:51 10° SW 07:52:11 16° S 07:54:27 10° SE daylight
25 Oct - 09:38:18 10° SW 09:39:46 12° S 09:41:14 10° SSE daylight
26 Oct - 05:51:54 10° SSW 05:53:57 13° S 05:55:52 10° SE daylight
26 Oct - 07:39:08 10° SW 07:41:36 16° S 07:43:57 10° SE daylight
26 Oct - 09:28:14 10° SSW 09:29:09 11° SSW 09:30:04 10° S daylight
27 Oct - 05:40:40 10° SSW 05:43:20 15° S 05:45:45 10° SE daylight
27 Oct - 07:28:24 10° SW 07:31:00 17° S 07:33:26 10° SE daylight
28 Oct - 03:44:29 10° SSE 03:44:51 10° SSE 03:45:12 10° SSE visible
28 Oct - 05:29:32 10° SW 05:32:42 17° S 05:35:32 10° SE daylight
28 Oct - 07:17:40 10° SW 07:20:24 17° S 07:22:55 10° SE daylight
29 Oct - 03:31:45 10° S 03:34:10 13° SSE 03:36:24 10° SE visible
29 Oct - 05:18:28 10° SW 05:22:04 20° S 05:25:14 10° SE visible
29 Oct - 07:06:55 10° SW 07:09:47 17° S 07:12:24 10° SSE daylight
